Location: Big Sable Point
(44.0575°N, 86.5149°W)
Time: 10:32:42
(UTC-05:00)

Tiangong 2 - Pass Details

Date: 24 July 2018
Orbit: 383 x 391 km, 42.8° (Epoch: 15 December)

Event Time Altitude Azimuth Distance (km) Brightness Sun altitude
Rises 22:34:39 0° 268° (W) 2,262 5.7 -11.8°
Reaches altitude 10° 22:38:14 10° 226° (SW) 1,400 3.9 -12.3°
Maximum altitude 22:38:52 11° 214° (SW) 1,371 3.8 -12.4°
Drops below altitude 10° 22:39:31 10° 202° (SSW) 1,397 3.7 -12.5°
Enters shadow 22:40:12 - 191° (S) 1,480 3.7 -12.6°
